Main page
Satellite images Climate Cyclones Lightning AirportsFAQ Languages Contact Newsletter About
Weather : Europe Africa North America South America Asia Australia-Oceania Others

macau-cn, Macau, Macau International Airport

45005

latitude: , longitude: China, elevation: 22-10N m


METAR: VMMC 162300Z 35018KT CAVOK 15/09 Q1022 NOSIG